When you browse on this site, cookies collect data to enhance your experience and personalize the content and advertising you see.
Visit our Privacy Policy to learn more. By continuing to use the site, you agree to this use of cookies and data.
  • în România
  • Lista ţărilor
  • Pe 7 zile
  • Temperatura apei
  • Meteo pe hartă
  • Widget-uri
  • user-avatar
    Intrare

    Meteo pe oră la Armagh

    Astăzi, 25 Februarie, Marţi

    Timp Temperatura Precipitaţii Vânt Presiune Umiditate
    00:00 +1°C° 0 mm 5 m/s 746 mmHg 94%
    01:00 0°C° 0 mm 5 m/s 745 mmHg 94%
    02:00 0°C° 0 mm 5 m/s 744 mmHg 94%
    03:00 -1°C° 0 mm 5 m/s 744 mmHg 94%
    04:00 -1°C° 0 mm 5 m/s 743 mmHg 93%
    05:00 -1°C° 0 mm 5 m/s 743 mmHg 92%
    06:00 -1°C° 0 mm 5 m/s 743 mmHg 91%
    07:00 0°C° 0 mm 5 m/s 742 mmHg 91%
    08:00 0°C° 0 mm 5 m/s 742 mmHg 91%
    09:00 0°C° 0 mm 5 m/s 741 mmHg 91%
    10:00 +1°C° 0.1 mm 6 m/s 741 mmHg 87%
    11:00 +2°C° 0.1 mm 6 m/s 741 mmHg 84%
    12:00 +3°C° 0.1 mm 7 m/s 741 mmHg 80%
    13:00 +2°C° 0.4 mm 7 m/s 740 mmHg 82%
    14:00 +2°C° 0.4 mm 7 m/s 740 mmHg 83%
    15:00 0°C° 0.4 mm 7 m/s 739 mmHg 84%
    16:00 -1°C° 0.1 mm 6 m/s 739 mmHg 85%
    17:00 -1°C° 0.1 mm 6 m/s 740 mmHg 87%
    18:00 -1°C° 0.1 mm 5 m/s 740 mmHg 88%
    19:00 -1°C° 0.3 mm 5 m/s 740 mmHg 89%
    20:00 -2°C° 0.3 mm 6 m/s 740 mmHg 90%
    21:00 -2°C° 0.3 mm 6 m/s 740 mmHg 92%
    22:00 -2°C° 0 mm 6 m/s 740 mmHg 90%
    23:00 -1°C° 0 mm 5 m/s 741 mmHg 88%

    Mâine, 26 Februarie, Miercuri

    Timp Temperatura Precipitaţii Vânt Presiune Umiditate
    00:00 -1°C° 0 mm 5 m/s 741 mmHg 87%
    01:00 -2°C° 0.1 mm 6 m/s 742 mmHg 88%
    02:00 -2°C° 0.1 mm 6 m/s 743 mmHg 89%
    03:00 -2°C° 0.1 mm 7 m/s 743 mmHg 90%
    04:00 -2°C° 0.1 mm 7 m/s 744 mmHg 88%
    05:00 -2°C° 0.1 mm 7 m/s 745 mmHg 87%
    06:00 -2°C° 0.1 mm 6 m/s 746 mmHg 85%
    07:00 -2°C° 0 mm 6 m/s 747 mmHg 84%
    08:00 -1°C° 0 mm 5 m/s 747 mmHg 82%
    09:00 -1°C° 0 mm 5 m/s 748 mmHg 81%
    10:00 0°C° 0.1 mm 5 m/s 748 mmHg 81%
    11:00 +1°C° 0.1 mm 6 m/s 748 mmHg 80%
    12:00 +2°C° 0.1 mm 6 m/s 749 mmHg 80%
    13:00 +2°C° 0.2 mm 6 m/s 748 mmHg 81%
    14:00 +2°C° 0.2 mm 6 m/s 748 mmHg 82%
    15:00 +2°C° 0.2 mm 6 m/s 747 mmHg 83%
    16:00 +1°C° 0.1 mm 5 m/s 747 mmHg 85%
    17:00 0°C° 0.1 mm 4 m/s 747 mmHg 88%
    18:00 0°C° 0.1 mm 3 m/s 747 mmHg 90%
    19:00 0°C° 0 mm 3 m/s 746 mmHg 92%
    20:00 0°C° 0 mm 3 m/s 746 mmHg 94%
    21:00 -1°C° 0 mm 4 m/s 746 mmHg 95%
    22:00 0°C° 0.1 mm 3 m/s 745 mmHg 96%
    23:00 0°C° 0.1 mm 3 m/s 745 mmHg 97%

    Poimâine, 27 Februarie, Joi

    Timp Temperatura Precipitaţii Vânt Presiune Umiditate
    00:00 +1°C° 0.1 mm 2 m/s 745 mmHg 97%
    01:00 +1°C° 0.2 mm 2 m/s 745 mmHg 97%
    02:00 0°C° 0.2 mm 3 m/s 744 mmHg 97%
    03:00 0°C° 0.2 mm 3 m/s 744 mmHg 97%
    04:00 -1°C° 0 mm 3 m/s 744 mmHg 96%
    05:00 -1°C° 0 mm 3 m/s 744 mmHg 95%
    06:00 -2°C° 0 mm 3 m/s 744 mmHg 93%
    07:00 -2°C° 0 mm 4 m/s 744 mmHg 91%
    08:00 -1°C° 0 mm 4 m/s 744 mmHg 88%
    09:00 -1°C° 0 mm 5 m/s 745 mmHg 85%
    10:00 -1°C° 0 mm 6 m/s 745 mmHg 81%
    11:00 +2°C° 0 mm 6 m/s 746 mmHg 76%
    12:00 +3°C° 0 mm 7 m/s 747 mmHg 71%
    13:00 +3°C° 0.1 mm 7 m/s 747 mmHg 71%
    14:00 +3°C° 0.1 mm 7 m/s 748 mmHg 70%
    15:00 +3°C° 0.1 mm 7 m/s 748 mmHg 70%
    16:00 +2°C° 0 mm 6 m/s 749 mmHg 75%
    17:00 +1°C° 0 mm 5 m/s 749 mmHg 80%
    18:00 0°C° 0 mm 4 m/s 750 mmHg 85%
    19:00 0°C° 0 mm 3 m/s 750 mmHg 87%
    20:00 0°C° 0 mm 3 m/s 750 mmHg 90%
    21:00 -1°C° 0 mm 3 m/s 751 mmHg 92%
    22:00 -1°C° 0 mm 3 m/s 751 mmHg 92%
    23:00 -1°C° 0 mm 3 m/s 751 mmHg 91%

    28 Februarie, Vineri

    Timp Temperatura Precipitaţii Vânt Presiune Umiditate
    00:00 -1°C° 0 mm 3 m/s 751 mmHg 91%
    01:00 -1°C° 0 mm 3 m/s 751 mmHg 91%
    02:00 -1°C° 0 mm 3 m/s 750 mmHg 91%
    03:00 -1°C° 0 mm 3 m/s 750 mmHg 91%
    04:00 -1°C° 0 mm 3 m/s 750 mmHg 89%
    05:00 -1°C° 0 mm 3 m/s 749 mmHg 87%
    06:00 0°C° 0 mm 3 m/s 749 mmHg 85%
    07:00 0°C° 0 mm 3 m/s 748 mmHg 87%
    08:00 0°C° 0 mm 4 m/s 748 mmHg 90%
    09:00 0°C° 0 mm 4 m/s 747 mmHg 93%
    10:00 +1°C° 0 mm 5 m/s 746 mmHg 90%
    11:00 +2°C° 0 mm 5 m/s 745 mmHg 88%
    12:00 +2°C° 0 mm 5 m/s 744 mmHg 85%
    13:00 +3°C° 0.2 mm 6 m/s 743 mmHg 88%
    14:00 +3°C° 0.2 mm 6 m/s 741 mmHg 91%
    15:00 +3°C° 0.2 mm 7 m/s 740 mmHg 94%
    16:00 +3°C° 0.1 mm 7 m/s 738 mmHg 94%
    17:00 +4°C° 0.1 mm 7 m/s 737 mmHg 94%
    18:00 +4°C° 0.1 mm 7 m/s 735 mmHg 95%
    19:00 +4°C° 0.2 mm 6 m/s 734 mmHg 95%
    20:00 +5°C° 0.2 mm 5 m/s 732 mmHg 95%
    21:00 +6°C° 0.2 mm 5 m/s 731 mmHg 96%
    22:00 +5°C° 0.8 mm 4 m/s 730 mmHg 96%
    23:00 +5°C° 0.8 mm 4 m/s 729 mmHg 97%

    29 Februarie, Sâmbătă

    Timp Temperatura Precipitaţii Vânt Presiune Umiditate
    00:00 +5°C° 0.8 mm 3 m/s 727 mmHg 97%
    01:00 +4°C° 0.7 mm 4 m/s 727 mmHg 95%
    02:00 +2°C° 0.7 mm 5 m/s 727 mmHg 92%
    03:00 -1°C° 0.7 mm 6 m/s 727 mmHg 90%
    04:00 -1°C° 0 mm 5 m/s 727 mmHg 90%
    05:00 -1°C° 0 mm 5 m/s 727 mmHg 90%
    06:00 -2°C° 0 mm 5 m/s 728 mmHg 90%
    07:00 -1°C° 0 mm 5 m/s 728 mmHg 89%
    08:00 -1°C° 0 mm 6 m/s 728 mmHg 88%
    09:00 -1°C° 0 mm 7 m/s 729 mmHg 87%
    10:00 0°C° 0.2 mm 7 m/s 729 mmHg 81%
    11:00 +2°C° 0.2 mm 7 m/s 730 mmHg 76%
    12:00 +2°C° 0.2 mm 8 m/s 731 mmHg 70%
    13:00 +2°C° 0 mm 8 m/s 731 mmHg 66%
    14:00 +2°C° 0 mm 9 m/s 731 mmHg 63%
    15:00 +2°C° 0 mm 9 m/s 732 mmHg 59%
    16:00 +1°C° 0.2 mm 9 m/s 732 mmHg 69%
    17:00 0°C° 0.2 mm 9 m/s 733 mmHg 79%
    18:00 -2°C° 0.2 mm 8 m/s 733 mmHg 90%
    19:00 -2°C° 0.3 mm 8 m/s 733 mmHg 88%
    20:00 -2°C° 0.3 mm 7 m/s 734 mmHg 86%
    21:00 -2°C° 0.3 mm 6 m/s 734 mmHg 85%
    22:00 -3°C° 0 mm 6 m/s 735 mmHg 85%
    23:00 -2°C° 0 mm 5 m/s 735 mmHg 85%

    1 Martie, Duminică

    Timp Temperatura Precipitaţii Vânt Presiune Umiditate
    00:00 -4°C° 0 mm 5 m/s 735 mmHg 85%
    01:00 -4°C° 0 mm 5 m/s 735 mmHg 85%
    02:00 -4°C° 0 mm 5 m/s 735 mmHg 85%
    03:00 -2°C° 0 mm 5 m/s 735 mmHg 85%
    04:00 -3°C° 0.3 mm 6 m/s 735 mmHg 86%
    05:00 -2°C° 0.3 mm 6 m/s 736 mmHg 87%
    06:00 -1°C° 0.3 mm 7 m/s 736 mmHg 88%
    07:00 -1°C° 0.1 mm 6 m/s 737 mmHg 87%
    08:00 +1°C° 0.1 mm 6 m/s 737 mmHg 86%
    09:00 +1°C° 0.1 mm 6 m/s 738 mmHg 85%
    10:00 +1°C° 0.2 mm 6 m/s 738 mmHg 85%
    11:00 +2°C° 0.2 mm 6 m/s 739 mmHg 85%
    12:00 +2°C° 0.2 mm 6 m/s 740 mmHg 86%
    13:00 +2°C° 0.2 mm 6 m/s 740 mmHg 84%
    14:00 +3°C° 0.2 mm 6 m/s 741 mmHg 82%
    15:00 +3°C° 0.2 mm 6 m/s 741 mmHg 80%
    16:00 +2°C° 0.1 mm 5 m/s 742 mmHg 83%
    17:00 +1°C° 0.1 mm 4 m/s 742 mmHg 87%
    18:00 0°C° 0.1 mm 3 m/s 743 mmHg 90%
    19:00 0°C° 0 mm 3 m/s 743 mmHg 91%
    20:00 -1°C° 0 mm 3 m/s 744 mmHg 92%
    21:00 -2°C° 0 mm 3 m/s 744 mmHg 93%
    22:00 -2°C° 0 mm 3 m/s 745 mmHg 93%
    23:00 -2°C° 0 mm 3 m/s 745 mmHg 93%
    Arată mai mult